Home   Weather   Charlotte Amalie   Past weeks

Flag for US Virgin Islands Past Weather in Charlotte Amalie, US Virgin Islands — Yesterday and Last 2 Weeks

Now
84 °F

Clear.


Feels Like: 94 °F
Forecast: 81 / 89 °F
Wind: 15 mph from East

Location: Cyril E. King International Airport

Current Time: Sep 29, 2016 at 9:40:16 PM

Latest Report: Sep 29, 2016 at 8:53 PM


Visibility: 10 mi

Pressure: 29.97 "Hg

Humidity: 80%

Dew Point: 77 °F

Location of Charlotte AmalieLocation

Past Weather in Charlotte Amalie — Graph

°F

Charlotte Amalie Temperature Yesterday

Maximum temperature yesterday: 93 °F (at 12:53 PM)
Minimum temperature yesterday: 80 °F (at 7:53 PM)
Average temperature yesterday: 86 °F

High & Low Weather Summary for the Past Weeks

 TemperatureHumidityPressure
High93 °F (Sep 28, 12:53 PM)100% (Sep 18, 8:36 AM)30.03 "Hg (Sep 18, 8:36 AM)
Low77 °F (Sep 18, 9:04 AM)56% (Sep 16, 11:53 AM)29.84 "Hg (Sep 21, 3:53 PM)
Average85 °F79%29.95 "Hg
* Reported Sep 14 7:53 PM — Sep 29 7:53 PM, Charlotte Amalie, Weather by CustomWeather, © 2016

Note: Actual official high and low records may vary slightly from our data, if they occured in-between our weather recording intervals... More about our weather records

Advertising

Charlotte Amalie Weather History for the Previous 24 Hours

Scroll right to see more
 ConditionsComfort  
Time TempWeatherWind HumidityBarometerVisibility
7:53 PM
Thu, Sep 29
85 °FClear.21 mph77%29.96 "Hg10 mi
6:53 PM85 °FClear.17 mph80%29.97 "Hg10 mi
5:53 PM86 °FPassing clouds.18 mph75%29.96 "Hg8 mi
4:53 PM87 °FSunny.15 mph65%29.95 "Hg10 mi
3:53 PM88 °FPassing clouds.18 mph70%29.93 "Hg9 mi
2:53 PM87 °FPassing clouds.21 mph72%29.94 "Hg10 mi
1:53 PM88 °FSunny.17 mph65%29.95 "Hg10 mi
12:53 PM89 °FScattered clouds.21 mph68%29.97 "Hg10 mi
11:53 AM89 °FScattered clouds.21 mph63%29.98 "Hg10 mi
10:53 AM90 °FScattered clouds.20 mph59%29.98 "Hg10 mi
9:53 AM88 °FScattered clouds.21 mph67%29.98 "Hg10 mi
8:53 AM88 °FScattered clouds.20 mph67%29.96 "Hg10 mi
7:53 AM86 °FScattered clouds.20 mph72%29.95 "Hg10 mi
6:53 AM85 °FSunny.16 mph75%29.93 "Hg10 mi
5:53 AM84 °FPassing clouds.24 mph83%29.92 "Hg10 mi
4:53 AM84 °FClear.22 mph80%29.92 "Hg10 mi
3:53 AM83 °FPassing clouds.21 mph82%29.92 "Hg10 mi
2:53 AM83 °FClear.15 mph79%29.93 "Hg10 mi
1:53 AM83 °FClear.20 mph82%29.94 "Hg10 mi
12:53 AM84 °FClear.14 mph80%29.95 "Hg10 mi
11:53 PM
Wed, Sep 28
84 °FPartly cloudy.17 mph80%29.98 "Hg10 mi
10:53 PM83 °FPassing clouds.17 mph82%30.01 "Hg10 mi
9:53 PM82 °FPassing clouds.14 mph88%30.01 "Hg10 mi
Weather by CustomWeather, © 2016

See weather overviewHow to use our weather pages